TimeCST,TemperatureF,Dew PointF,Humidity,Sea Level PressureIn,VisibilityMPH,Wind Direction,Wind SpeedMPH,Gust SpeedMPH,PrecipitationIn,Events,Conditions,WindDirDegrees,DateUTC
12:12 AM,19.0,14.0,81,30.07,10.0,WNW,10.4,-,N/A,,Scattered Clouds,290,2013-12-15 06:12:00
12:54 AM,17.1,12.0,81,30.09,10.0,West,10.4,-,N/A,,Clear,280,2013-12-15 06:54:00
1:54 AM,15.1,10.0,80,30.11,10.0,West,9.2,-,N/A,,Clear,280,2013-12-15 07:54:00
2:54 AM,14.0,9.0,80,30.12,10.0,West,9.2,-,N/A,,Clear,280,2013-12-15 08:54:00
3:10 AM,14.0,9.0,80,30.09,9.0,West,10.4,-,N/A,,Mostly Cloudy,280,2013-12-15 09:10:00
3:54 AM,15.1,9.0,77,30.11,9.0,WNW,11.5,-,N/A,,Overcast,290,2013-12-15 09:54:00
4:12 AM,14.0,9.0,80,30.08,9.0,West,12.7,-,N/A,,Overcast,280,2013-12-15 10:12:00
4:54 AM,14.0,9.0,80,30.12,9.0,WNW,9.2,-,N/A,,Overcast,290,2013-12-15 10:54:00
5:31 AM,12.9,8.1,81,30.09,9.0,West,9.2,-,N/A,,Scattered Clouds,280,2013-12-15 11:31:00
5:54 AM,12.9,8.1,81,30.13,9.0,West,8.1,-,N/A,,Clear,270,2013-12-15 11:54:00
6:54 AM,12.0,8.1,84,30.14,8.0,West,6.9,-,N/A,,Clear,260,2013-12-15 12:54:00
7:54 AM,12.0,6.1,77,30.15,10.0,West,5.8,-,N/A,,Overcast,280,2013-12-15 13:54:00
8:54 AM,12.9,6.1,74,30.16,10.0,West,10.4,-,N/A,,Overcast,270,2013-12-15 14:54:00
9:54 AM,14.0,6.1,71,30.16,10.0,West,10.4,-,N/A,,Overcast,270,2013-12-15 15:54:00
10:54 AM,15.1,7.0,70,30.17,10.0,West,10.4,-,N/A,,Overcast,280,2013-12-15 16:54:00
11:54 AM,16.0,7.0,68,30.14,10.0,West,11.5,-,N/A,,Overcast,280,2013-12-15 17:54:00
12:54 PM,16.0,7.0,68,30.13,10.0,West,9.2,-,N/A,,Overcast,280,2013-12-15 18:54:00
1:54 PM,17.1,8.1,68,30.12,10.0,WNW,8.1,-,N/A,,Overcast,290,2013-12-15 19:54:00
2:54 PM,17.1,8.1,68,30.13,10.0,WNW,6.9,-,N/A,,Overcast,290,2013-12-15 20:54:00
3:54 PM,17.1,7.0,65,30.14,10.0,NW,4.6,-,N/A,,Overcast,310,2013-12-15 21:54:00
4:54 PM,17.1,8.1,68,30.14,8.0,WNW,3.5,-,N/A,,Overcast,300,2013-12-15 22:54:00
5:54 PM,16.0,9.0,74,30.14,10.0,WNW,3.5,-,0.00,,Overcast,300,2013-12-15 23:54:00
6:54 PM,17.1,9.0,71,30.15,7.0,Calm,Calm,-,0.00,Snow,Light Snow,0,2013-12-16 00:54:00
7:54 PM,17.1,10.0,74,30.15,5.0,Calm,Calm,-,0.00,Snow,Light Snow,0,2013-12-16 01:54:00
8:54 PM,17.1,10.9,77,30.16,4.0,North,3.5,-,0.00,Snow,Light Snow,360,2013-12-16 02:54:00
9:54 PM,16.0,12.0,84,30.15,3.0,NE,5.8,-,0.00,Snow,Light Snow,40,2013-12-16 03:54:00
10:05 PM,16.0,12.0,84,30.12,2.0,NNE,4.6,-,0.01,Snow,Light Snow,30,2013-12-16 04:05:00
10:14 PM,16.0,12.0,84,30.12,1.2,NNE,3.5,-,0.01,Snow,Light Snow,30,2013-12-16 04:14:00
10:39 PM,16.0,12.0,84,30.12,2.0,NNE,3.5,-,0.02,Snow,Light Snow,30,2013-12-16 04:39:00
10:54 PM,16.0,12.0,84,30.16,3.0,NNE,4.6,-,0.02,Snow,Light Snow,20,2013-12-16 04:54:00
11:23 PM,16.0,12.0,84,30.10,2.5,NE,3.5,-,0.00,Snow,Light Snow,50,2013-12-16 05:23:00
11:41 PM,16.0,12.0,84,30.09,3.0,ENE,8.1,-,0.00,Snow,Light Snow,60,2013-12-16 05:41:00
11:52 PM,15.8,12.2,86,30.08,2.5,ENE,6.9,-,0.01,Snow,Light Snow,70,2013-12-16 05:52:00
11:54 PM,16.0,12.0,84,30.12,2.5,ENE,8.1,-,0.01,Snow,Light Snow,70,2013-12-16 05:54:00